Weather History for Cut Bank, MT

Change the Weather History Date:

Monday, February 11, 2013

  Actual Average Record
Temperature  
Mean Temperature 22 °F 24 °F  
Max Temperature 41 °F 35 °F 65 °F (2005)
Min Temperature 3 °F 13 °F -24 °F (1904)
Degree Days  
Heating Degree Days 43 41  
Month to date heating degree days 328 461  
Since 1 July heating degree days 5071 5379  
Cooling Degree Days 0 0  
Month to date cooling degree days 0 0  
Year to date cooling degree days 0 0  
Moisture  
Dew Point 17 °F    
Average Humidity 73    
Maximum Humidity 91    
Minimum Humidity 54    
Precipitation  
Precipitation 0.00 in 0.01 in 0.40 in (1961)
Month to date precipitation T 0.07  
Year to date precipitation 0.42 0.27  
Snow  
Snow 0.00 in - - ()
Snow Depth -    
Sea Level Pressure  
Sea Level Pressure 29.99 in    
Wind  
Wind Speed 17 mph (West)    
Max Wind Speed 32 mph    
Max Gust Speed 37 mph    
Visibility 10 miles    
Events      
T = Trace of Precipitation, MM = Missing Value Source: NWS Daily Summary

Daily Weather History Graph

Daily Weather History Graph

Search for Another Location

Airport:

Trip Planner

Search our weather history database for the weather conditions in past years. The results will help you decide how hot, cold, wet, or windy it might be!

Date:

Astronomy

Feb. 11, 2013 Rise Set
Actual Time 7:43 AM MST 5:44 PM MST
Civil Twilight 7:10 AM MST 6:17 PM MST
Nautical Twilight 6:33 AM MST 6:54 PM MST
Astronomical Twilight 5:57 AM MST 7:31 PM MST
Moon 7:57 AM MST (2/11) 8:00 PM MST (2/11)
Length of Visible Light 11h 07m
Length of Day
10h 01m
Waxing Crescent, 3% of the Moon is Illuminated
Feb 11
Waxing Crescent
Feb 17
First Quarter
Feb 25
Full
Mar 4
Last Quarter
Mar 11
New

Hourly Weather History & Observations

Time (MST) Temp. Windchill Dew Point Humidity Pressure Visibility Wind Dir Wind Speed Gust Speed Precip Events Conditions
12:56 AM 9.0 °F - 6.1 °F 88% 30.09 in 10.0 mi Calm Calm - N/A   Clear
1:56 AM 8.1 °F - 5.0 °F 87% 30.08 in 10.0 mi Calm Calm - N/A   Clear
2:56 AM 7.0 °F - 3.0 °F 84% 30.05 in 10.0 mi Calm Calm - N/A   Clear
3:56 AM 12.9 °F - 7.0 °F 77% 30.01 in 10.0 mi Calm Calm - N/A   Unknown
4:56 AM 9.0 °F - 3.9 °F 80% 30.00 in 10.0 mi Calm Calm - N/A   Clear
5:56 AM 6.1 °F -5.6 °F 3.0 °F 87% 30.03 in 10.0 mi WNW 6.9 mph - N/A   Clear
6:56 AM 24.1 °F 11.0 °F 18.0 °F 77% 29.98 in 10.0 mi West 16.1 mph - N/A   Clear
7:56 AM 26.1 °F 15.6 °F 18.0 °F 71% 29.97 in 10.0 mi West 11.5 mph - N/A   Clear
8:56 AM 27.0 °F 14.7 °F 19.0 °F 72% 29.97 in 10.0 mi WNW 16.1 mph - N/A   Clear
9:56 AM 32.0 °F 20.5 °F 21.9 °F 66% 29.99 in 10.0 mi West 18.4 mph - N/A   Clear
10:56 AM 35.1 °F 22.0 °F 23.0 °F 61% 29.98 in 10.0 mi West 28.8 mph 34.5 mph N/A   Clear
11:56 AM 37.0 °F 25.1 °F 24.1 °F 59% 29.98 in 10.0 mi West 26.5 mph 33.4 mph N/A   Clear
12:56 PM 39.9 °F 29.2 °F 24.1 °F 53% 29.97 in 10.0 mi West 25.3 mph - N/A   Clear
1:56 PM 39.9 °F 28.8 °F 24.1 °F 53% 29.98 in 10.0 mi West 27.6 mph 36.8 mph N/A   Clear
2:56 PM 37.9 °F 26.3 °F 24.1 °F 57% 29.97 in 10.0 mi WSW 26.5 mph 34.5 mph N/A   Clear
3:56 PM 36.0 °F 24.2 °F 21.9 °F 57% 29.96 in 10.0 mi West 24.2 mph 31.1 mph N/A   Clear
4:56 PM 35.1 °F 22.7 °F 21.0 °F 57% 29.98 in 10.0 mi WSW 25.3 mph 31.1 mph N/A   Clear
5:56 PM 30.9 °F 17.2 °F 19.9 °F 64% 30.01 in 10.0 mi WSW 25.3 mph - N/A   Clear
6:56 PM 30.0 °F 17.5 °F 19.0 °F 64% 29.99 in 10.0 mi WSW 19.6 mph - N/A   Clear
7:56 PM 30.0 °F 16.9 °F 19.0 °F 64% 29.97 in 10.0 mi West 21.9 mph - N/A   Clear
8:56 PM 30.0 °F 16.3 °F 19.0 °F 64% 29.98 in 10.0 mi West 24.2 mph 31.1 mph N/A   Clear
9:56 PM 28.9 °F 17.3 °F 19.0 °F 67% 29.97 in 10.0 mi WSW 16.1 mph - N/A   Clear
10:56 PM 30.0 °F 16.9 °F 19.0 °F 64% 29.94 in 10.0 mi West 21.9 mph 26.5 mph N/A   Clear
11:56 PM 30.9 °F 18.1 °F 19.9 °F 64% 29.95 in 10.0 mi WSW 21.9 mph 28.8 mph N/A   Clear